Temp
-10 -9 -9 -9 -10 -10 -10 -10 -10 -10 -10 -10 -10 -10 -10 -10 -10 -10 -10 -9 -9 -9 -9 -9 -9 -9 -8 -8 -8 -8 -8 -8 -8 -8 -8 -8 -8 -7 -7 -8 -8 -8 -8
-10 -9 -9 -9 -9 -10 -10 -10 -10 -10 -10 -10 -10 -10 -10 -10 -10 -10 -10 -10 -9 -9 -9 -9 -9 -9 -9 -9 -9 -8 -8 -8 -8 -8 -8 -8 -8 -8 -8 -8 -8 -8 -8
-10 -10 -9 -9 -9 -10 -10 -10 -10 -10 -10 -10 -10 -10 -10 -10 -10 -10 -9 -10 -10 -10 -9 -9 -9 -9 -9 -9 -9 -9 -9 -9 -9 -9 -9 -8 -8 -8 -8 -8 -8 -8 -8
-10 -10 -10 -9 -10 -10 -10 -10 -10 -10 -10 -10 -10 -10 -10 -10 -10 -10 -10 -10 -10 -9 -10 -10 -9 -10 -9 -9 -9 -9 -9 -9 -9 -9 -9 -9 -9 -9 -9 -9 -9 -9 -9
-10 -10 -10 -10 -10 -10 -10 -10 -10 -10 -10 -10 -10 -10 -10 -10 -10 -10 -10 -10 -10 -10 -10 -10 -10 -10 -10 -10 -10 -9 -9 -9 -9 -9 -9 -9 -9 -9 -9 -9 -9 -9 -9
-10 -10 -10 -10 -10 -10 -10 -10 -10 -10 -10 -11 -10 -10 -10 -10 -10 -10 -10 -10 -10 -10 -10 -10 -10 -10 -10 -10 -10 -10 -10 -10 -10 -9 -9 -9 -9 -9 -9 -9 -9 -9 -9
-10 -10 -10 -10 -10 -10 -10 -10 -10 -10 -10 -10 -10 -10 -10 -10 -10 -10 -10 -10 -10 -10 -10 -10 -10 -10 -10 -10 -10 -10 -10 -10 -10 -10 -10 -9 -9 -9 -10 -10 -10 -10 -10
-10 -10 -10 -10 -10 -10 -10 -10 -10 -10 -10 -10 -10 -10 -10 -10 -10 -10 -10 -10 -10 -10 -10 -10 -10 -10 -10 -11 -11 -10 -11 -11 -11 -10 -10 -10 -10 -10 -10 -10 -10 -10 -10
-11 -10 -10 -10 -10 -10 -10 -10 -10 -10 -10 -10 -11 -11 -10 -10 -10 -10 -9 -9 -10 -10 -10 -10 -10 -10 -10 -10 -11 -11 -11 -11 -11 -11 -11 -11 -11 -10 -10 -10 -10 -10 -10
-11 -11 -10 -10 -10 -10 -10 -10 -10 -10 -10 -10 -10 -10 -10 -10 -10 -10 -9 -9 -10 -10 -10 -10 -10 -10 -11 -11 -11 -12 -12 -11 -12 -12 -12 -12 -11 -11 -11 -11 -11 -11 -11
-11 -11 -11 -10 -10 -10 -10 -10 -10 -10 -10 -11 -10 -10 -10 -10 -10 -9 -10 -10 -10 -10 -11 -11 -11 -11 -11 -11 -11 -11 -12 -12 -12 -12 -12 -12 -12 -12 -11 -11 -12 -12 -12
-11 -11 -11 -10 -10 -10 -11 -11 -10 -10 -10 -11 -11 -10 -10 -10 -10 -10 -10 -10 -10 -10 -11 -11 -11 -11 -12 -12 -12 -12 -13 -12 -12 -13 -13 -13 -12 -12 -12 -12 -12 -12 -12
-11 -11 -11 -11 -11 -11 -11 -11 -11 -10 -10 -11 -11 -11 -11 -10 -10 -10 -10 -10 -11 -11 -11 -11 -12 -12 -12 -13 -13 -13 -13 -13 -13 -13 -13 -13 -13 -13 -12 -13 -13 -13 -13
-12 -12 -11 -11 -11 -11 -11 -11 -11 -11 -10 -11 -11 -11 -10 -10 -10 -10 -11 -11 -11 -11 -12 -12 -12 -12 -13 -13 -13 -13 -13 -13 -13 -13 -13 -13 -13 -13 -13 -13 -13 -13 -13
-12 -12 -11 -12 -12 -11 -11 -11 -11 -11 -10 -11 -11 -11 -11 -11 -11 -11 -12 -12 -12 -12 -12 -13 -13 -13 -13 -13 -14 -13 -14 -14 -14 -14 -14 -14 -14 -14 -14 -14 -14 -13 -14
-12 -12 -12 -12 -12 -12 -11 -11 -11 -11 -10 -10 -11 -11 -11 -11 -12 -12 -12 -13 -13 -13 -13 -13 -13 -13 -14 -14 -14 -14 -14 -14 -14 -14 -14 -14 -14 -14 -14 -14 -14 -14 -14
-12 -12 -12 -12 -12 -12 -11 -11 -11 -11 -11 -11 -11 -12 -12 -12 -13 -13 -12 -13 -13 -13 -13 -13 -14 -14 -14 -14 -14 -14 -14 -14 -14 -14 -14 -14 -14 -14 -14 -14 -14 -14 -14
-12 -12 -12 -12 -12 -12 -12 -12 -12 -12 -12 -11 -11 -12 -12 -12 -12 -13 -13 -13 -13 -13 -14 -14 -14 -14 -14 -14 -14 -14 -14 -14 -14 -14 -14 -14 -14 -14 -14 -14 -14 -14 -14
-12 -12 -12 -12 -12 -12 -12 -12 -12 -12 -12 -12 -11 -12 -13 -13 -13 -13 -13 -13 -13 -14 -14 -14 -14 -14 -14 -15 -14 -14 -14 -14 -14 -14 -14 -14 -14 -14 -14 -14 -14 -14 -15
-12 -12 -12 -12 -12 -12 -12 -13 -13 -13 -12 -12 -12 -12 -13 -13 -13 -13 -14 -14 -14 -14 -14 -15 -15 -15 -15 -15 -15 -14 -14 -14 -14 -14 -14 -14 -14 -14 -14 -15 -14 -14 -15
-13 -13 -12 -12 -12 -12 -13 -13 -13 -13 -13 -12 -12 -13 -13 -14 -14 -14 -14 -14 -14 -14 -15 -15 -15 -15 -15 -15 -15 -15 -15 -15 -14 -14 -15 -15 -15 -15 -15 -15 -15 -15 -15
-13 -13 -13 -13 -12 -13 -13 -13 -13 -13 -13 -13 -13 -13 -14 -14 -14 -14 -14 -14 -14 -15 -15 -15 -15 -15 -15 -15 -15 -15 -15 -15 -15 -15 -15 -15 -15 -15 -15 -15 -15 -15 -15
-13 -13 -13 -13 -13 -13 -13 -13 -13 -13 -13 -14 -14 -13 -14 -14 -15 -15 -14 -14 -14 -14 -14 -14 -14 -15 -15 -15 -15 -15 -15 -15 -15 -15 -15 -15 -15 -15 -15 -15 -15 -15 -14
-13 -13 -13 -13 -13 -13 -13 -13 -14 -14 -14 -14 -14 -14 -14 -14 -15 -15 -15 -14 -14 -14 -14 -14 -14 -15 -15 -15 -15 -15 -15 -15 -15 -15 -15 -15 -15 -15 -15 -15 -14 -14 -14
-13 -13 -13 -13 -13 -13 -14 -14 -14 -14 -14 -14 -14 -14 -14 -14 -15 -15 -15 -14 -14 -14 -14 -14 -14 -14 -15 -15 -15 -15 -15 -15 -15 -15 -15 -15 -14 -14 -14 -14 -14 -13 -14
-14 -13 -13 -13 -13 -13 -13 -13 -13 -14 -14 -14 -14 -14 -14 -14 -15 -15 -15 -14 -14 -14 -14 -14 -15 -14 -15 -15 -15 -15 -14 -14 -14 -14 -14 -14 -14 -13 -13 -13 -14 -14 -14
Height
5838 5840 5843 5846 5848 5849 5851 5852 5852 5854 5855 5856 5858 5860 5861 5861 5861 5862 5863 5864 5865 5865 5866 5866 5867 5868 5870 5871 5872 5872 5873 5874 5875 5875 5875 5876 5875 5875 5875 5876 5875 5875 5875
5836 5839 5842 5844 5847 5849 5851 5851 5852 5853 5854 5856 5858 5859 5861 5862 5861 5860 5862 5863 5865 5866 5866 5867 5867 5869 5871 5871 5872 5872 5875 5876 5876 5876 5875 5876 5876 5875 5875 5877 5876 5875 5874
5836 5838 5841 5843 5845 5848 5850 5851 5852 5853 5854 5855 5857 5859 5860 5861 5861 5862 5862 5864 5865 5866 5867 5867 5869 5869 5869 5871 5872 5874 5875 5876 5875 5876 5875 5875 5875 5876 5876 5876 5876 5875 5874
5836 5837 5839 5842 5844 5846 5848 5850 5851 5853 5854 5855 5856 5859 5860 5860 5861 5862 5864 5864 5864 5866 5865 5866 5868 5870 5871 5873 5873 5874 5874 5874 5875 5875 5876 5876 5876 5876 5876 5875 5875 5874 5874
5833 5836 5837 5840 5842 5845 5847 5849 5850 5852 5852 5854 5855 5858 5860 5860 5859 5861 5863 5864 5865 5866 5867 5867 5869 5871 5873 5873 5874 5874 5874 5875 5876 5877 5877 5877 5876 5876 5875 5874 5874 5874 5874
5831 5834 5835 5838 5840 5843 5846 5848 5849 5850 5851 5852 5854 5857 5858 5859 5858 5857 5862 5864 5865 5866 5866 5866 5869 5871 5872 5873 5874 5874 5875 5876 5876 5877 5877 5877 5877 5876 5876 5875 5874 5873 5873
5829 5832 5834 5836 5839 5842 5845 5846 5848 5849 5850 5851 5853 5855 5857 5858 5859 5860 5862 5863 5864 5865 5866 5867 5869 5870 5871 5872 5874 5874 5875 5875 5876 5876 5876 5875 5875 5874 5874 5874 5873 5872 5871
5826 5829 5832 5835 5838 5840 5843 5844 5846 5847 5848 5850 5852 5854 5856 5858 5858 5860 5861 5862 5863 5865 5867 5868 5869 5871 5872 5873 5873 5874 5874 5875 5875 5874 5874 5874 5874 5873 5873 5873 5872 5871 5870
5823 5827 5830 5833 5836 5838 5840 5842 5844 5846 5847 5849 5851 5853 5855 5857 5857 5860 5861 5861 5862 5864 5866 5867 5869 5870 5871 5871 5872 5873 5872 5872 5872 5872 5872 5872 5872 5871 5871 5871 5870 5869 5868
5821 5823 5827 5830 5834 5836 5838 5840 5841 5844 5847 5848 5850 5851 5853 5855 5857 5859 5858 5858 5861 5863 5864 5867 5869 5870 5870 5870 5871 5870 5871 5871 5871 5870 5871 5871 5869 5868 5868 5868 5868 5866 5866
5817 5821 5824 5828 5831 5834 5837 5838 5839 5842 5845 5847 5848 5849 5851 5853 5854 5856 5857 5858 5859 5861 5862 5864 5866 5867 5868 5869 5869 5869 5870 5870 5870 5870 5870 5869 5869 5868 5867 5866 5865 5864 5863
5815 5818 5822 5825 5829 5832 5834 5835 5837 5840 5842 5846 5847 5848 5849 5850 5852 5854 5856 5857 5858 5859 5860 5862 5864 5865 5866 5867 5868 5869 5869 5869 5870 5870 5869 5867 5867 5866 5865 5864 5863 5862 5862
5814 5816 5820 5822 5826 5829 5831 5833 5835 5837 5840 5843 5845 5846 5847 5847 5849 5852 5853 5855 5857 5858 5859 5860 5861 5863 5864 5866 5866 5866 5867 5867 5867 5867 5866 5866 5865 5864 5863 5863 5861 5860 5859
5810 5815 5817 5819 5822 5826 5829 5831 5833 5835 5838 5840 5841 5844 5844 5844 5846 5848 5851 5853 5856 5857 5858 5859 5860 5861 5863 5863 5865 5865 5865 5865 5864 5865 5865 5864 5863 5863 5862 5860 5859 5859 5858
5808 5811 5815 5817 5820 5822 5826 5828 5830 5832 5835 5838 5839 5841 5842 5843 5844 5848 5849 5851 5854 5855 5856 5857 5859 5860 5860 5862 5863 5862 5864 5863 5863 5863 5863 5863 5862 5861 5860 5859 5858 5857 5855
5805 5808 5812 5814 5816 5819 5822 5825 5827 5830 5831 5834 5836 5838 5840 5841 5842 5845 5847 5849 5851 5853 5855 5856 5857 5859 5860 5861 5862 5861 5862 5862 5862 5862 5862 5862 5860 5859 5859 5857 5856 5854 5853
5801 5804 5809 5812 5813 5817 5819 5822 5825 5827 5829 5831 5833 5835 5837 5839 5841 5843 5846 5848 5850 5852 5853 5855 5856 5857 5859 5860 5861 5861 5861 5860 5861 5861 5860 5859 5859 5858 5857 5855 5853 5852 5850
5798 5801 5805 5807 5809 5813 5815 5818 5822 5825 5827 5830 5831 5833 5835 5837 5840 5841 5844 5847 5848 5850 5852 5854 5855 5856 5857 5859 5860 5859 5860 5859 5858 5858 5858 5857 5856 5855 5854 5852 5851 5848 5846
5794 5797 5801 5804 5806 5808 5812 5813 5818 5822 5825 5828 5830 5831 5833 5834 5837 5840 5842 5844 5847 5848 5849 5851 5853 5855 5855 5856 5857 5857 5858 5858 5857 5855 5855 5855 5854 5852 5850 5849 5847 5845 5842
5790 5792 5797 5798 5801 5803 5808 5810 5814 5818 5822 5824 5827 5829 5831 5833 5835 5836 5839 5841 5844 5846 5847 5848 5850 5852 5853 5854 5854 5854 5855 5854 5854 5854 5853 5852 5850 5848 5848 5845 5842 5840 5838
5785 5788 5792 5793 5796 5801 5805 5808 5811 5814 5817 5820 5823 5826 5829 5831 5832 5834 5837 5838 5841 5844 5845 5846 5847 5849 5850 5851 5851 5851 5851 5850 5850 5850 5849 5848 5847 5845 5842 5840 5838 5836 5834
5782 5784 5788 5790 5793 5797 5801 5803 5807 5810 5813 5816 5819 5822 5824 5828 5830 5832 5834 5836 5838 5840 5842 5843 5845 5846 5847 5848 5848 5847 5847 5847 5846 5845 5844 5843 5841 5840 5838 5836 5833 5831 5829
5780 5782 5785 5787 5790 5793 5796 5800 5804 5808 5811 5813 5815 5818 5820 5824 5826 5829 5831 5833 5835 5837 5839 5840 5842 5842 5843 5844 5844 5844 5843 5842 5841 5840 5839 5837 5836 5834 5832 5830 5828 5826 5824
5777 5779 5781 5784 5787 5788 5792 5796 5801 5803 5806 5808 5811 5813 5816 5819 5822 5825 5827 5829 5832 5834 5835 5837 5838 5839 5839 5839 5839 5838 5837 5836 5835 5834 5832 5831 5830 5829 5827 5825 5823 5822 5821
5773 5776 5778 5780 5782 5785 5789 5792 5795 5798 5800 5803 5806 5808 5811 5814 5817 5820 5823 5825 5827 5829 5831 5832 5833 5834 5834 5833 5833 5832 5831 5830 5829 5828 5826 5824 5824 5823 5822 5820 5819 5818 5817
5769 5773 5775 5776 5778 5781 5785 5787 5790 5792 5795 5798 5801 5804 5807 5810 5813 5815 5818 5820 5822 5824 5826 5827 5828 5828 5828 5828 5827 5825 5824 5824 5822 5822 5821 5819 5819 5818 5817 5816 5814 5813 5811
Wind_Speed
15 16 15 15 13 13 11 9 9 9 9 8 7 6 4 3 4 5 6 7 8 9 9 9 9 11 11 10 8 7 8 7 5 5 5 5 7 7 6 6 6 5 4
17 17 15 16 14 12 10 9 8 9 10 8 6 4 5 5 6 8 9 8 8 11 11 11 10 8 8 8 8 7 5 5 5 5 5 5 6 5 5 4 4 3 3
18 17 16 16 14 12 11 8 8 9 9 7 6 5 6 6 8 7 5 8 8 5 8 14 13 9 8 7 5 6 6 5 4 3 3 4 4 4 4 4 3 1 2
18 20 18 16 15 13 11 9 8 9 9 7 6 5 6 8 6 11 8 8 7 5 3 12 17 11 8 8 7 5 3 2 1 1 2 2 3 2 3 2 1 1 2
20 21 20 18 16 14 12 10 9 10 11 9 8 7 5 9 9 11 12 9 8 9 5 9 12 11 9 7 7 6 4 3 2 4 4 4 3 3 3 1 2 2 2
19 22 21 20 18 16 12 11 11 12 12 12 11 8 11 9 10 12 14 11 7 7 6 8 11 11 9 9 7 5 4 4 5 6 5 5 5 4 4 4 4 3 3
19 21 21 21 19 16 13 11 11 12 13 12 9 9 9 5 9 7 12 10 11 9 8 11 10 9 8 8 8 8 6 7 8 7 7 6 6 5 6 6 5 5 4
20 21 22 22 20 17 14 12 11 11 12 11 9 7 5 4 2 7 13 8 10 11 8 9 9 8 8 8 9 9 7 8 7 8 7 7 8 6 7 7 6 5 5
21 21 22 22 21 19 17 14 12 11 11 10 10 7 7 3 6 6 9 8 14 14 9 8 8 8 9 8 8 8 7 6 7 7 7 7 7 7 7 7 7 6 6
23 23 24 23 22 22 18 13 11 10 10 9 10 8 8 6 8 10 9 10 16 13 11 9 10 10 9 8 8 8 8 7 8 8 7 6 6 6 6 7 7 6 6
25 25 23 24 24 22 19 15 12 11 10 10 12 9 10 7 8 8 6 13 16 12 13 11 10 10 11 12 11 12 10 10 10 7 5 5 7 8 8 7 6 6 5
26 24 24 23 22 20 20 18 16 13 13 12 9 8 8 10 9 7 7 12 14 12 12 12 11 12 11 10 10 11 10 11 10 12 13 12 10 9 8 8 7 6 6
25 24 23 22 22 21 19 19 16 14 14 16 13 12 10 9 10 8 8 11 11 13 14 14 12 10 9 8 8 9 7 6 4 4 5 10 7 9 8 8 8 8 7
24 22 18 23 22 21 19 18 16 15 15 17 15 11 8 6 9 9 11 14 14 14 14 12 10 9 9 7 6 6 7 7 9 11 12 13 13 11 11 9 9 9 9
25 25 24 22 21 22 22 19 17 15 15 18 19 14 9 11 13 16 16 15 14 12 12 12 10 9 7 6 6 7 7 9 8 8 8 11 9 9 8 7 8 10 12
27 25 21 23 23 22 20 19 16 14 15 13 14 14 15 15 14 15 14 14 15 13 12 11 11 9 10 9 7 7 7 6 9 11 11 11 10 9 8 8 10 12 15
26 27 20 23 23 22 22 20 19 14 11 11 13 17 17 17 16 16 16 17 16 14 13 13 12 12 11 10 8 6 9 8 8 9 9 9 10 10 12 12 11 12 13
26 26 23 23 24 22 22 20 19 18 14 14 16 17 17 16 15 16 16 15 15 15 14 13 12 13 11 11 10 7 8 9 8 9 10 10 10 12 13 14 15 15 15
26 25 23 22 24 25 22 21 20 20 21 18 18 18 18 17 16 17 15 15 15 15 15 14 12 13 11 11 10 9 9 8 10 11 12 12 13 14 16 16 17 17 18
25 25 24 25 26 26 25 24 20 20 21 22 21 19 19 19 17 17 17 16 16 17 15 14 13 13 12 11 10 10 10 11 12 13 14 16 17 18 17 19 19 20 20
25 24 24 26 26 32 27 27 22 22 23 24 23 21 20 19 19 18 18 18 18 18 16 16 15 14 13 12 11 11 13 14 15 16 17 18 19 20 22 21 21 22 23
27 24 25 28 28 26 27 26 23 24 25 25 24 23 22 21 20 20 20 19 19 18 17 16 15 13 13 14 15 16 17 18 19 21 21 22 21 21 21 23 24 24 21
28 24 25 29 24 29 35 32 25 26 25 25 26 25 25 24 22 22 21 20 19 18 17 16 15 15 16 17 18 20 21 22 23 24 24 24 24 25 24 24 23 20 15
28 28 28 29 29 33 32 30 28 29 29 28 27 26 27 26 24 24 24 22 20 19 19 19 19 19 19 20 22 23 24 25 27 28 28 27 26 27 25 22 18 16 14
29 29 30 30 31 33 30 29 30 31 31 30 29 27 27 27 27 28 26 25 24 23 23 22 21 21 22 23 24 25 27 28 28 27 27 27 23 21 19 18 16 17 16
28 29 30 31 31 28 27 29 31 33 33 31 30 28 27 28 28 28 28 27 26 25 24 24 24 24 25 25 27 27 26 24 23 21 21 22 20 19 17 19 20 21 22
Wind_Direction
188 182 185 188 185 194 202 202 203 206 209 216 223 229 240 237 238 216 211 187 193 189 187 179 172 160 155 150 139 133 124 127 132 128 138 154 146 142 144 129 127 120 110
186 183 187 184 187 195 197 198 193 203 210 212 218 209 231 214 226 220 202 199 199 216 198 193 195 179 149 140 141 132 137 142 146 145 139 154 156 148 151 152 137 130 107
192 184 187 186 188 196 198 195 194 202 209 202 213 209 222 223 219 223 207 200 227 252 205 204 192 172 166 156 151 157 162 159 146 145 150 160 159 172 168 162 164 151 82
208 192 190 190 194 200 203 199 202 211 212 201 209 217 227 250 258 234 220 213 236 211 155 212 197 172 174 178 184 184 173 141 173 176 195 183 188 200 200 188 196 348 20
211 201 197 197 201 205 208 209 208 213 216 209 207 210 221 262 266 217 220 217 220 219 154 185 193 191 193 193 202 185 178 192 242 250 236 228 228 248 271 289 312 326 333
211 207 204 204 202 206 206 210 216 219 220 219 214 218 224 266 337 198 196 198 195 195 195 189 182 184 185 191 197 203 204 231 237 240 252 263 264 279 298 304 305 312 314
214 211 211 207 202 203 205 209 220 226 226 229 223 236 244 304 325 205 201 200 193 199 185 171 179 187 187 195 203 211 227 234 242 258 264 270 278 285 294 296 302 307 314
216 215 211 209 205 204 208 213 222 232 231 227 227 239 238 226 214 41 174 184 201 186 169 187 199 201 197 210 227 232 234 241 251 258 261 271 276 281 287 289 296 303 308
212 215 213 211 207 207 208 214 222 232 239 221 226 224 220 177 199 209 207 247 211 199 203 217 223 239 257 254 241 239 245 250 259 265 267 273 278 284 288 292 297 305 309
209 210 210 207 208 212 209 215 226 237 236 224 216 214 221 228 190 206 264 241 198 199 202 210 221 236 252 258 253 259 258 256 270 271 282 296 311 308 297 293 297 306 305
211 212 209 208 211 214 218 220 217 220 230 223 204 222 217 238 209 215 244 195 189 203 205 216 227 238 238 248 251 263 265 280 288 284 303 305 308 304 299 311 316 309 301
215 214 213 211 214 216 218 220 222 225 232 222 217 229 232 227 220 227 218 201 202 206 210 220 226 233 233 237 243 253 260 272 273 282 295 297 300 317 325 315 306 297 294
220 218 217 213 216 213 215 223 222 225 229 233 248 243 242 241 238 233 217 213 212 216 214 213 209 213 222 231 246 257 266 267 247 281 321 333 325 328 312 325 320 308 299
223 223 209 212 212 211 217 222 225 231 231 238 243 235 240 217 222 213 209 206 213 214 219 215 204 212 222 210 222 236 268 288 293 305 303 308 300 314 301 304 320 312 302
225 225 216 218 220 222 228 228 233 230 229 236 229 241 239 215 204 203 204 202 204 206 202 199 207 200 203 206 206 260 276 304 307 309 304 308 300 299 300 307 307 312 306
223 229 220 220 222 224 228 230 234 228 222 218 231 222 198 196 199 211 203 193 197 199 211 214 207 223 213 224 240 258 273 282 290 297 295 291 291 293 291 303 305 291 310
224 230 223 223 228 227 225 233 237 223 206 214 216 216 211 203 203 204 207 198 203 207 207 206 211 214 217 246 244 250 278 284 292 300 305 304 291 298 299 302 304 297 300
226 233 231 224 230 228 229 229 228 223 217 219 210 203 200 196 193 196 199 200 201 204 205 210 216 220 219 243 255 254 262 280 286 294 300 301 300 298 296 300 301 303 304
228 231 230 225 223 228 228 224 227 229 225 223 219 198 196 198 201 202 203 208 212 208 206 211 219 223 223 233 244 255 268 272 282 289 289 289 290 293 297 297 299 303 305
225 229 225 226 215 217 214 223 222 225 225 223 220 208 205 211 212 216 215 216 215 209 207 208 209 219 227 237 242 254 265 275 281 283 287 292 297 297 292 296 300 301 303
228 224 223 224 231 221 213 219 217 223 226 223 221 215 216 217 218 219 217 215 210 209 214 214 218 221 229 245 257 265 273 276 279 282 285 287 288 293 299 300 300 299 299
231 225 218 217 219 215 215 218 220 226 228 228 227 225 222 221 219 218 216 215 214 221 223 223 224 235 246 256 265 271 275 280 282 284 287 289 290 291 291 292 295 297 300
227 221 218 219 227 211 218 222 228 229 228 228 227 227 224 224 223 222 222 227 231 225 222 227 234 242 254 263 272 276 280 282 282 283 284 285 287 287 288 291 292 293 297
228 218 218 220 220 220 216 226 228 228 225 225 226 228 225 227 224 226 229 234 231 223 228 236 246 255 263 271 277 281 281 281 282 280 278 280 282 283 285 285 285 287 289
234 228 220 222 221 229 221 226 229 229 223 222 221 226 227 226 225 225 230 233 228 228 235 244 253 261 270 276 277 278 280 280 278 277 277 278 278 276 276 278 279 280 281
240 236 233 227 228 224 224 231 231 227 224 220 223 224 226 227 228 229 233 232 233 237 245 254 260 267 272 274 278 282 282 282 282 281 276 273 274 274 269 268 270 277 281